Retour au catalogue

COSMOS 1528

ActifMilitaireLEO
NORAD 14617·PAYLOAD·🇷🇺 Russia

Lancé Jan 5, 1984 depuis Plesetsk Cosmodrome

Loading…

Prochains Passages (prochaines 24 heures)

TLE

FraisSource: Space-Track

Époque: Sep 14, 2026, 09:47 UTC

1 14617U 84001G   26257.40816159 -.00000024  00000-0 -54124-4 0  9996
2 14617  74.0058 228.7333 0010896 294.3576 140.5909 12.49039583946565

Suivez COSMOS 1528 en temps réel avec AllMySat

Download on the App Store